London,

1:25 PM EDT on June 28, 2017 (GMT -0400)
London

Weather History for CYXU - October, 2012

Change the Weather History Date:

Wednesday, October 31, 2012

  Actual Average Record
Temperature  
Mean Temperature 44 °F -  
Max Temperature 47 °F 45 °F 68 °F (2003)
Min Temperature 41 °F 31 °F 24 °F (2002)
Degree Days  
Heating Degree Days 21    
Moisture  
Dew Point 42 °F    
Average Humidity 95    
Maximum Humidity 100    
Minimum Humidity 83    
Precipitation  
Precipitation 0.00 in 0.12 in - ()
Sea Level Pressure  
Sea Level Pressure 29.45 in    
Wind  
Wind Speed 7 mph ()    
Max Wind Speed 16 mph    
Max Gust Speed 24 mph    
Visibility 6.8 miles    
Events Rain    
Averages and records for this station are not official NWS values.
T = Trace of Precipitation, MM = Missing Value Source: Averaged Metar Reports

Daily Weather History Graph

Daily Weather History Graph

Search for Another Location

Airport or City:

Trip Planner

Search our weather history database for the weather conditions in past years. The results will help you decide how hot, cold, wet, or windy it might be!

Date:

Astronomy

Oct. 31, 2012 Rise Set
Actual Time 7:58 AM EDT 6:17 PM EDT
Civil Twilight 7:28 AM EDT 6:46 PM EDT
Nautical Twilight 6:55 AM EDT 7:20 PM EDT
Astronomical Twilight 6:22 AM EDT 7:53 PM EDT
Moon 7:24 PM EDT (10/31) 9:41 AM EDT (10/31)
Length of Visible Light 11h 17m
Length of Day
10h 18m
Full, 97% of the Moon is Illuminated
Oct 31
Full
Nov 6
Last Quarter
Nov 13
New
Nov 20
First Quarter
Nov 28
Full

Hourly Weather History & Observations

Time (EDT) Temp. Windchill Dew Point Humidity Pressure Visibility Wind Dir Wind Speed Gust Speed Precip Events Conditions
12:00 AM 44.6 °F 40.7 °F 44.6 °F 100% 29.36 in 15.0 mi North 6.9 mph - N/A   Overcast
12:26 AM 44.6 °F 39.7 °F 44.6 °F 100% 29.36 in 8.0 mi North 9.2 mph - N/A   Overcast
12:40 AM 44.6 °F 41.4 °F 42.8 °F 93% 29.36 in 8.0 mi North 5.8 mph - N/A   Overcast
1:00 AM 44.6 °F 40.2 °F 42.8 °F 93% 29.37 in 2.5 mi East 8.1 mph - N/A   Light Drizzle
1:29 AM 42.8 °F 36.6 °F 42.8 °F 100% 29.37 in 8.0 mi East 11.5 mph - N/A   Light Drizzle
1:52 AM 42.8 °F 38.6 °F 42.8 °F 100% 29.37 in 8.0 mi ENE 6.9 mph - N/A   Light Drizzle
2:00 AM 43 °F - 42 °F 97% 29.38 in 7 mi ENE 6.9 mph - -   Overcast
2:00 AM 42.8 °F 38.0 °F 42.8 °F 100% 29.37 in 8.0 mi NE 8.1 mph - N/A   Light Drizzle
2:35 AM 42.8 °F 38.6 °F 42.8 °F 100% 29.38 in 10.0 mi NE 6.9 mph - N/A Rain Light Rain
3:00 AM 42.8 °F 38.6 °F 42.8 °F 100% 29.39 in 8.0 mi ENE 6.9 mph - N/A Rain Light Rain
3:45 AM 42.8 °F 39.3 °F 41.0 °F 93% 29.39 in 8.0 mi NE 5.8 mph - N/A   Light Drizzle
4:00 AM 42.8 °F 40.1 °F 42.8 °F 100% 29.39 in 6.0 mi NE 4.6 mph - N/A   Light Drizzle
4:37 AM 42.8 °F 40.1 °F 41.0 °F 93% 29.40 in 8.0 mi NE 4.6 mph - N/A   Light Drizzle
5:00 AM 42.8 °F 40.1 °F 41.0 °F 93% 29.41 in 8.0 mi NE 4.6 mph - N/A Rain Light Rain
6:00 AM 42.8 °F 41.1 °F 42.8 °F 100% 29.42 in 5.0 mi North 3.5 mph - N/A Rain Light Rain
6:37 AM 42.8 °F 39.3 °F 41.0 °F 93% 29.42 in 8.0 mi North 5.8 mph - N/A Rain Light Rain
7:00 AM 42.8 °F 40.1 °F 41.0 °F 93% 29.43 in 12.0 mi North 4.6 mph - N/A   Overcast
7:42 AM 42.8 °F 40.1 °F 41.0 °F 93% 29.43 in 6.0 mi NNW 4.6 mph - N/A Rain Light Rain
8:00 AM 42 °F - 42 °F 98% 29.44 in 6 mi North 4.6 mph - -   Overcast
8:00 AM 42.8 °F 41.1 °F 41.0 °F 93% 29.44 in 6.0 mi North 3.5 mph - N/A Rain Light Rain
9:00 AM 42.8 °F 41.1 °F 41.0 °F 93% 29.45 in 8.0 mi North 3.5 mph - N/A   Overcast
9:56 AM 42.8 °F 39.3 °F 42.8 °F 100% 29.46 in 8.0 mi WNW 5.8 mph - N/A Rain Light Rain
10:00 AM 42.8 °F 40.1 °F 42.8 °F 100% 29.46 in 8.0 mi NW 4.6 mph - N/A Rain Light Rain
11:00 AM 44.6 °F 42.2 °F 42.8 °F 93% 29.45 in 10.0 mi NW 4.6 mph - N/A Rain Light Rain
12:00 PM 44.6 °F 40.7 °F 42.8 °F 93% 29.46 in 12.0 mi NNW 6.9 mph - N/A Rain Light Rain
1:00 PM 46.4 °F 42.9 °F 42.8 °F 87% 29.46 in 12.0 mi NW 6.9 mph - N/A Rain Light Rain
2:00 PM 47 °F - 44 °F 83% 29.46 in 7 mi NNW 6.9 mph - -   Overcast
2:00 PM 46.4 °F 42.9 °F 42.8 °F 87% 29.46 in 8.0 mi NW 6.9 mph - N/A Rain Light Rain
3:00 PM 46.4 °F 41.5 °F 44.6 °F 93% 29.46 in 8.0 mi NW 10.4 mph - N/A Rain Light Rain
3:09 PM 46.4 °F 41.5 °F 44.6 °F 93% 29.46 in 8.0 mi WNW 10.4 mph - N/A Rain Light Rain
3:21 PM 44.6 °F 37.8 °F 44.6 °F 100% 29.47 in 8.0 mi WNW 15.0 mph - N/A Rain Light Rain
4:00 PM 44.6 °F 38.4 °F 42.8 °F 93% 29.48 in 8.0 mi WNW 12.7 mph 18.4 mph N/A Rain Light Rain
4:37 PM 44.6 °F 38.8 °F 42.8 °F 93% 29.48 in 4.0 mi NW 11.5 mph 21.9 mph N/A Rain Light Rain
4:47 PM 42.8 °F 36.2 °F 42.8 °F 100% 29.49 in 2.0 mi WNW 12.7 mph 20.7 mph N/A Rain Light Rain
5:00 PM 42.8 °F 35.1 °F 42.8 °F 100% 29.49 in 2.0 mi WNW 16.1 mph - N/A Rain Light Rain
5:24 PM 42.8 °F 36.2 °F 42.8 °F 100% 29.49 in 5.0 mi WNW 12.7 mph 19.6 mph N/A Rain Light Rain
5:43 PM 42.8 °F 36.2 °F 41.0 °F 93% 29.50 in 2.5 mi WNW 12.7 mph 21.9 mph N/A Rain Light Rain
6:00 PM 42.8 °F 35.8 °F 41.0 °F 93% 29.51 in 2.5 mi WNW 13.8 mph 20.7 mph N/A Rain Light Rain
6:28 PM 41.0 °F 33.5 °F 41.0 °F 100% 29.52 in 4.0 mi WNW 13.8 mph 23.0 mph N/A Rain Light Rain
7:00 PM 41.0 °F 33.1 °F 39.2 °F 93% 29.53 in 4.0 mi WNW 15.0 mph 24.2 mph N/A Rain Light Rain
8:00 PM 41 °F - 39 °F 92% 29.54 in 4 mi WNW 13.8 mph - -   Overcast
8:00 PM 41.0 °F 34.3 °F 39.2 °F 93% 29.54 in 4.0 mi WNW 11.5 mph 20.7 mph N/A Rain Light Rain
9:00 PM 41.0 °F 34.7 °F 39.2 °F 93% 29.54 in 6.0 mi West 10.4 mph 19.6 mph N/A Rain Light Rain
10:00 PM 41.0 °F 33.9 °F 39.2 °F 93% 29.54 in 5.0 mi WNW 12.7 mph 18.4 mph N/A Rain Light Rain
11:00 PM 41.0 °F 33.5 °F 41.0 °F 100% 29.55 in 6.0 mi NW 13.8 mph 20.7 mph N/A Rain Light Rain
11:59 PM 41.0 °F 33.1 °F 39.2 °F 93% 29.54 in 3.0 mi WNW 15.0 mph 23.0 mph N/A Rain Light Rain